This is the latest recevied weather packets stored in our database for station/object ON6OO-13. If no packets are shown the sender has not sent any weather packets the latest 1 day(s).
| Time | Temp. | Humidity | Pressure | Rain* | Wind** | Luminosity | Snow |
|---|---|---|---|---|---|---|---|
| 1777989827 | 10° C | 95% | 1009.8 hPa | 0 mm | 2.68 m/s, 5° | - | - |
| 1777988914 | 10° C | 96% | 1009.8 hPa | 0 mm | 1.79 m/s, 12° | - | - |
| 1777988003 | 10° C | 96% | 1010.1 hPa | 0 mm | 1.79 m/s, 336° | - | - |
| 1777987090 | 9.44° C | 97% | 1010.1 hPa | 0 mm | 1.79 m/s, 312° | - | - |
| 1777986185 | 9.44° C | 98% | 1010.1 hPa | 0 mm | 3.13 m/s, 342° | - | - |
| 1777985266 | 10° C | 98% | 1010.1 hPa | 0 mm | 1.79 m/s, 329° | - | - |
| 1777984354 | 10° C | 98% | 1010.4 hPa | 0 mm | 4.02 m/s, 4° | - | - |
| 1777983442 | 10° C | 98% | 1010.4 hPa | 0 mm | 3.58 m/s, 34° | - | - |
| 1777982530 | 9.44° C | 98% | 1010.4 hPa | 0 mm | 4.47 m/s, 330° | - | - |
| 1777981618 | 9.44° C | 99% | 1010.4 hPa | 0 mm | 2.68 m/s, 46° | - | - |
| 1777980706 | 9.44° C | 99% | 1010.4 hPa | 0 mm | 4.02 m/s, 356° | - | - |
| 1777979794 | 9.44° C | 99% | 1010.8 hPa | 0 mm | 3.13 m/s, 1° | - | - |
| 1777978882 | 9.44° C | 99% | 1010.4 hPa | 0 mm | 1.34 m/s, 36° | - | - |
| 1777977970 | 9.44° C | 99% | 1011.1 hPa | 0 mm | 1.79 m/s, 352° | - | - |
| 1777977058 | 9.44° C | 99% | 1010.8 hPa | 0 mm | 3.13 m/s, 335° | - | - |
| 1777976146 | 9.44° C | 99% | 1010.8 hPa | 0 mm | 0 m/s | - | - |
| 1777975234 | 9.44° C | 99% | 1010.8 hPa | 0 mm | 2.68 m/s, 359° | - | - |
| 1777974322 | 9.44° C | 99% | 1010.8 hPa | 0 mm | 1.79 m/s, 358° | - | - |
| 1777973410 | 9.44° C | 99% | 1010.8 hPa | 0 mm | 1.79 m/s, 7° | - | - |
| 1777972498 | 9.44° C | 99% | 1011.1 hPa | 0 mm | 2.68 m/s, 7° | - | - |
| 1777971586 | 9.44° C | 99% | 1010.8 hPa | 0 mm | 0.89 m/s, 352° | - | - |
| 1777970674 | 9.44° C | 99% | 1011.1 hPa | 0 mm | 1.79 m/s, 45° | - | - |
| 1777969762 | 9.44° C | 99% | 1010.8 hPa | 0 mm | 2.68 m/s, 352° | - | - |
| 1777968850 | 10° C | 99% | 1010.8 hPa | 0 mm | 2.24 m/s, 48° | - | - |
| 1777967938 | 10° C | 99% | 1010.8 hPa | 0 mm | 2.68 m/s, 352° | - | - |
* Rain latest hour (hover to see other rain measurements)
** Current wind speed in m/s (hover to see current wind gust speed)